Hauptseite
METAR-TAF:

METAR-TAF

Flughäfen :

Flughafen Mailand-Malpensa

Mailand, Italien

Breite: 45-37N, Länge: 008-44E, Höhe: 234 m

Beobachtung

Neuester Wetterbericht von vor 13 Minuten, um 06:50 UTC
Wind 4 kt aus Nord/Nordwest, variierte zwischen West/Nordwest und Nord
Temperatur 25°C
Luftfeuchtigkeit 41%
Luftdruck 1015 hPa
Sichtweite 10 km oder mehr
keine Wolken unter 1500 m und keine Kumulonimbus oder Gewitterwolken

METAR: LIMC 180650Z 34004KT 290V010 CAVOK 25/11 Q1015 NOSIG

Zeit: 09:03 (07:03 UTC)

Prognose

Neuester Wetterbericht von vor 2 Stunden und 3 Minuten, um 05:00 UTC
Gültige Prognose vom 18 um 06 UTC bis 19 um 12 UTC
Wind 5 kt aus unterschiedlichen Richtungen
Sichtweite 10 km oder mehr
keine Wolken unter 1500 m und keine Kumulonimbus oder Gewitterwolken

TAF: LIMC 180500Z 1806/1912 VRB05KT CAVOK

Wetterbeobachtungen und Prognosen von mehr als 4000 Flughäfen (METAR und TAF Bericht).

Die verfügbaren Stationen werden durch gelbe und rote Markierungen auf der Karte dargestellt.

Führen Sie die Maus auf sie, um den Namen der Station zu sehen.

Darauf klicken, um die Beobachtung von Wetterbeobachtungen und Prognosen zu sehen.

Um die Karte zu ändern : klicken Sie auf den grünen Tasten mit einem schwarzen Kreuz Zum Vergrößern, auf den grünen Button mit einem Gedankenstrich zu verkleinern, oder auf die grünen Pfeile für benachbarte Karten.


METAR-TAF: